Theta_e
354 362 364 363 364 364 365 365 365 364 363 362 361 361 360 361 361 358 359 360 362 361 357 358 359 358 357 356 355 355 355 355 355 353 353 352 351 350 350 350 349 346 349
357 362 362 363 364 364 364 364 364 364 363 363 363 362 361 361 359 358 360 362 362 359 356 355 357 356 355 354 354 354 353 354 354 354 353 354 353 350 348 348 347 347 348
359 363 362 362 363 363 363 362 362 362 362 362 362 362 361 359 359 361 361 362 361 358 355 354 354 354 354 353 354 353 353 353 354 354 353 351 350 353 349 348 348 349 349
361 363 362 362 362 363 362 361 361 361 361 361 361 360 360 360 361 361 361 360 359 357 354 354 354 354 354 353 353 353 353 352 352 350 348 348 347 355 351 348 349 350 349
360 362 362 363 362 362 361 361 360 360 359 359 360 360 360 361 361 360 360 359 357 356 354 355 355 354 354 353 354 355 354 354 353 354 355 354 350 350 353 349 349 349 349
359 361 363 362 361 361 361 361 360 359 359 359 359 360 360 360 360 360 360 358 358 354 355 356 355 355 354 353 353 353 353 349 350 349 350 349 352 352 352 350 350 349 349
357 359 361 361 361 361 361 360 360 358 358 358 359 360 360 360 359 359 359 357 356 355 354 355 354 355 355 353 353 351 348 348 349 349 344 348 353 351 351 352 352 351 352
356 359 360 361 360 360 360 359 359 358 358 357 357 358 358 358 358 359 358 357 357 356 355 354 354 354 353 352 351 351 350 349 348 348 345 345 344 347 351 356 356 354 352
357 357 358 359 359 360 359 358 358 357 357 356 356 356 357 357 357 358 357 357 357 356 356 355 354 353 352 350 349 348 348 348 347 344 341 342 342 344 348 355 357 356 356
356 357 357 357 354 354 357 359 358 357 357 356 356 356 356 357 357 357 355 355 356 355 354 354 353 352 351 349 350 351 351 350 344 343 341 341 345 346 347 353 357 357 358
354 356 357 356 355 352 352 355 357 358 357 357 357 356 354 351 354 356 354 356 355 354 353 353 351 350 350 350 348 345 341 340 338 337 337 343 343 345 348 352 356 358 359
350 353 354 357 354 353 351 355 353 353 353 353 353 354 352 353 354 352 355 356 355 354 352 351 350 350 348 344 342 343 342 343 343 343 342 341 344 345 349 353 353 355 358
349 351 352 354 356 354 351 355 353 353 353 354 355 355 354 353 354 352 351 351 353 353 349 350 350 347 346 344 343 343 343 344 345 345 344 344 346 346 345 352 358 358 356
350 351 353 353 355 356 355 353 352 352 353 350 352 355 352 350 352 351 349 350 352 350 350 349 345 346 347 347 346 345 345 345 347 348 348 345 345 345 344 348 354 356 356
349 353 353 354 354 356 357 354 354 352 352 352 351 354 352 350 351 351 350 349 349 350 349 348 346 347 348 349 348 347 346 347 348 349 347 344 345 345 346 348 351 355 356
350 352 354 355 353 356 356 354 354 354 354 354 352 352 354 352 351 350 350 348 348 349 347 347 347 348 349 349 347 346 345 343 343 345 343 346 342 343 345 348 348 348 353
351 351 353 351 352 354 355 353 355 355 354 353 353 355 354 354 353 351 348 348 348 350 351 351 350 348 346 345 344 344 343 343 342 343 343 344 345 345 345 347 345 346 348
353 349 350 350 351 352 354 353 352 353 354 353 354 354 355 354 354 352 349 347 350 346 347 346 345 343 343 343 342 342 342 341 340 340 341 342 343 344 344 341 339 341 339
353 353 352 352 349 349 351 352 351 354 354 354 354 355 356 356 355 352 349 348 348 347 346 346 344 343 342 342 341 342 339 337 339 339 342 342 342 340 337 336 335 337 333
351 353 354 352 352 349 350 350 350 350 350 352 351 353 355 356 354 352 349 349 348 346 344 344 342 340 338 340 337 338 338 338 338 339 339 340 338 337 335 332 330 329 333
346 348 350 349 347 345 345 342 343 343 346 347 350 352 353 353 352 350 349 347 344 341 341 341 338 335 337 339 336 336 336 338 339 339 338 339 339 338 336 330 330 329 332
343 344 346 348 345 346 346 344 345 345 345 347 346 346 347 347 347 344 345 343 339 338 337 338 340 337 337 339 334 333 326 328 328 330 332 333 333 331 329 331 333 334 333
342 343 344 346 344 344 344 342 343 342 343 342 341 341 342 343 344 344 344 341 338 339 339 341 340 340 334 338 338 332 325 319 323 328 331 331 334 331 331 332 332 332 331
340 345 345 345 342 340 342 342 341 339 338 341 341 343 343 343 345 344 343 340 340 341 343 341 340 339 337 335 335 336 336 331 323 319 325 328 328 327 329 328 327 326 327
340 343 345 342 337 338 342 342 341 339 340 341 341 342 342 342 342 342 342 340 339 338 341 340 340 340 338 336 335 333 333 331 332 326 317 318 321 322 323 323 325 325 325
339 338 337 333 334 338 342 341 341 340 340 339 339 338 338 339 339 341 339 340 341 340 340 340 338 336 336 335 333 330 326 322 319 318 315 316 316 319 321 323 323 323 323
Wind_Speed
13 18 18 16 14 15 17 18 20 20 20 20 20 19 18 17 17 16 15 13 11 11 11 11 11 12 12 11 11 11 10 11 10 10 9 8 7 5 5 5 5 5 5
18 20 20 17 16 14 16 17 18 19 18 18 18 17 17 16 16 15 14 11 10 11 11 11 11 11 12 11 11 11 11 10 9 9 8 7 5 3 3 3 3 4 5
21 19 20 19 18 17 17 18 19 18 18 18 17 17 17 16 16 14 13 11 11 11 11 11 11 11 11 11 11 10 10 9 8 8 7 4 4 7 6 5 5 5 5
19 18 19 19 19 18 16 17 19 19 18 17 17 17 16 15 15 14 12 11 11 11 11 12 12 12 11 11 11 10 9 7 7 6 5 4 4 9 7 6 6 6 6
19 19 19 19 19 18 18 16 17 18 18 18 17 17 16 15 13 12 11 10 10 11 11 11 11 11 11 10 9 8 7 5 4 6 2 3 3 7 8 6 7 7 7
18 19 20 20 21 20 19 18 17 18 18 18 18 17 16 15 14 13 12 10 10 11 10 9 9 8 9 8 6 5 4 2 3 2 3 4 7 3 6 6 7 7 7
20 18 19 17 18 18 20 20 19 19 19 18 18 17 16 15 14 13 12 11 10 10 10 10 9 7 6 7 6 3 1 2 5 3 4 4 2 5 8 9 9 9 10
20 19 18 18 18 18 17 18 19 19 19 18 18 17 17 15 14 13 12 11 10 10 10 10 9 8 6 5 3 1 1 3 3 3 3 2 3 3 9 11 12 11 12
19 18 17 18 18 19 18 16 17 18 18 19 18 17 16 15 14 13 12 11 10 9 9 8 8 7 6 3 1 1 3 3 7 4 5 4 2 5 6 12 13 13 13
16 16 16 16 16 16 16 18 17 17 17 17 17 18 17 16 13 11 10 10 10 9 8 9 8 7 5 2 3 5 7 6 7 7 4 5 10 11 10 8 13 14 14
13 14 14 14 14 14 14 14 15 17 17 16 15 15 14 11 14 15 11 12 11 10 9 6 4 3 1 3 3 3 2 1 3 4 4 4 8 10 13 12 11 12 13
16 14 12 12 13 13 11 14 13 13 12 12 12 14 10 11 11 12 12 13 13 10 7 6 4 4 5 3 3 6 3 3 4 3 3 5 5 3 6 10 12 14 15
15 13 13 13 12 13 11 10 7 8 8 9 12 12 10 9 8 7 6 7 7 9 7 8 7 5 6 4 4 4 4 5 4 3 2 4 4 2 2 2 7 11 14
17 17 16 16 14 14 10 9 10 8 8 8 10 12 9 7 8 8 6 7 6 5 6 6 5 6 7 8 8 7 6 5 4 3 4 5 5 5 3 4 7 8 10
18 17 17 16 13 13 13 9 9 9 8 10 10 12 9 8 8 7 6 6 6 6 7 7 6 6 7 7 7 7 6 5 5 3 3 6 6 7 8 7 4 8 8
16 17 17 17 13 13 11 10 9 9 10 9 9 10 11 8 7 7 6 6 6 6 5 6 6 5 5 4 4 3 3 4 5 5 4 3 4 8 9 6 6 5 8
16 16 16 15 12 12 14 10 8 8 9 9 9 11 12 10 9 7 6 6 5 5 6 4 4 4 4 4 5 5 5 7 7 6 5 5 3 5 7 7 3 5 13
16 18 15 12 12 12 13 10 7 7 8 8 8 8 11 10 10 9 7 6 6 6 5 5 5 5 5 4 5 6 6 6 6 8 7 7 6 5 5 7 6 7 10
17 17 18 17 16 15 12 8 8 8 7 7 7 7 10 11 11 9 7 7 8 7 6 6 6 4 5 6 7 7 5 6 7 6 8 9 7 5 5 7 9 8 6
15 14 14 13 15 13 9 7 5 5 5 5 6 7 10 9 11 9 7 8 8 7 7 7 6 4 5 7 6 8 7 5 6 6 9 8 4 7 6 8 6 5 5
12 13 14 15 13 11 9 8 6 6 5 3 4 6 7 7 10 9 7 8 7 6 7 8 6 5 5 4 6 6 5 6 8 7 6 6 9 8 8 6 4 3 4
15 14 14 14 13 11 9 7 4 5 3 4 4 4 5 7 8 9 9 9 7 5 7 8 8 3 4 3 4 3 4 3 2 3 4 5 7 6 6 5 5 5 6
15 16 15 13 11 11 10 8 6 4 3 3 2 3 4 6 8 9 10 6 7 8 8 7 9 7 5 3 5 5 5 4 5 3 4 5 6 6 6 5 6 7 8
18 14 12 11 11 10 12 8 9 6 5 4 5 5 6 8 9 8 8 5 5 5 6 6 5 5 5 6 3 6 6 4 5 9 4 6 8 9 9 7 8 10 10
11 11 10 9 8 10 11 10 7 5 3 3 4 7 7 6 7 7 6 4 4 6 4 5 5 7 6 5 4 3 3 5 7 7 13 13 10 8 9 9 9 10 12
8 9 9 10 7 10 10 10 8 8 5 4 4 3 5 5 4 4 5 5 4 3 4 4 5 4 2 1 2 3 5 6 7 8 11 13 14 13 7 9 9 9 11
Wind_Direction
155 146 140 145 139 134 130 129 127 129 134 136 140 141 142 140 134 135 137 137 138 130 125 118 111 111 109 104 103 103 105 107 111 116 108 105 106 105 122 133 146 148 130
146 147 146 144 141 136 130 127 125 126 130 133 135 136 137 135 134 135 136 135 132 131 126 121 118 114 114 114 115 118 118 121 131 124 121 129 131 133 144 160 184 110 150
146 149 147 144 143 143 142 136 130 130 133 133 135 136 136 136 135 136 134 135 139 138 131 126 123 121 120 124 124 127 127 136 136 137 141 135 125 172 178 193 191 188 181
145 147 148 147 146 146 144 137 134 134 133 132 133 134 135 134 135 134 133 136 141 142 135 133 133 131 129 130 132 133 133 137 142 154 179 164 163 159 176 201 207 203 205
148 150 148 147 144 146 143 139 136 134 134 133 134 135 134 134 131 127 127 134 144 143 141 137 134 134 134 135 136 138 143 153 167 214 245 234 234 158 197 205 214 219 224
152 154 146 148 150 149 146 144 142 138 137 137 138 137 137 135 132 131 134 136 142 142 137 130 131 133 135 134 135 146 149 146 259 336 339 306 262 111 220 216 241 248 239
154 155 151 149 149 149 147 146 146 145 143 143 142 140 137 136 136 135 135 138 141 141 140 137 140 135 134 139 149 155 97 2 317 6 345 359 307 202 229 214 220 238 243
155 155 154 152 151 149 149 149 147 146 146 145 144 143 142 143 141 141 139 140 143 144 144 146 147 147 144 150 159 195 295 323 250 288 295 304 55 237 224 223 216 220 235
158 157 160 162 156 152 151 152 150 151 149 148 149 149 150 151 152 151 148 148 149 149 148 149 158 158 156 166 198 324 342 324 293 303 295 272 137 263 256 239 228 223 229
164 164 164 163 164 164 160 158 156 152 150 153 156 155 156 156 155 153 153 158 158 162 164 169 168 165 172 161 29 16 350 302 319 318 310 326 316 307 290 267 241 235 233
172 170 168 166 167 169 167 165 156 157 157 159 162 162 158 169 169 166 169 167 173 176 178 177 164 141 88 117 87 53 325 342 312 310 304 337 303 315 312 300 277 250 245
173 180 173 171 172 171 170 167 173 170 172 174 175 172 177 176 182 183 179 182 183 180 163 161 153 148 200 215 187 194 201 240 254 241 232 263 262 292 313 302 284 270 257
172 177 180 176 178 182 176 172 180 180 179 179 180 179 181 179 184 194 189 193 193 184 186 181 172 199 207 216 223 232 230 226 235 235 218 253 238 240 214 242 298 278 266
178 184 182 183 182 190 181 186 184 185 184 185 188 186 181 184 187 194 200 200 199 197 192 196 203 204 217 221 227 228 224 224 212 224 214 256 281 290 312 344 344 322 304
183 185 185 187 187 192 191 189 190 193 194 193 190 190 189 192 195 194 195 205 209 200 193 202 209 218 226 233 239 235 225 221 218 246 263 259 284 313 316 328 32 341 335
187 188 184 191 189 194 193 187 191 196 194 199 194 191 193 195 195 194 194 205 218 219 218 211 207 206 228 230 213 220 259 282 273 272 281 267 275 292 295 312 352 17 349
194 189 194 192 192 196 197 188 195 202 201 200 199 195 194 192 190 190 199 204 204 205 186 198 188 154 182 201 245 252 271 282 279 273 277 278 275 261 286 313 330 332 35
187 190 189 192 189 191 196 190 191 204 207 201 204 194 194 196 192 196 194 199 189 181 171 183 198 200 212 233 261 263 259 270 264 277 266 265 257 262 265 274 329 29 43
193 188 193 195 194 195 190 183 183 190 202 198 192 197 194 200 199 205 196 188 179 177 169 195 208 233 260 269 275 281 261 248 245 279 286 272 263 275 304 328 351 6 7
196 197 196 193 196 187 177 160 161 173 174 176 188 206 201 203 195 194 193 187 182 184 191 211 229 221 254 265 285 280 275 265 274 271 273 266 259 270 313 322 323 318 314
200 198 194 190 187 173 170 163 177 175 150 172 208 222 212 204 193 189 194 186 184 203 207 217 233 225 251 273 297 275 288 279 266 266 268 277 273 292 308 290 283 301 269
200 201 197 199 185 183 173 161 143 145 166 180 189 189 189 200 191 191 192 193 183 204 229 227 233 265 251 244 278 308 300 248 242 278 272 283 291 297 288 291 302 309 321
203 200 199 191 181 175 160 133 112 113 115 158 182 198 198 193 200 205 199 188 181 204 235 224 215 217 248 222 233 276 258 281 326 233 269 284 299 292 299 270 285 307 311
209 196 192 180 175 163 160 153 165 180 188 182 205 211 191 208 222 219 213 199 196 214 227 222 218 237 240 248 205 230 258 306 301 300 280 290 299 284 293 288 293 294 300
197 188 179 166 163 158 160 171 169 170 182 194 206 197 190 207 208 199 199 191 188 216 213 224 207 217 211 250 239 243 251 257 254 270 290 292 292 280 282 291 307 297 295
169 168 142 126 148 165 171 173 170 189 197 228 225 213 191 184 184 205 184 181 175 183 205 194 186 178 197 250 289 287 276 277 279 276 280 281 294 300 300 290 291 292 296